Location: Burkes Observatory
(44.7598°N, 69.4315°W)
Time: 11:12:24
(UTC-04:00)

Daily predictions for brighter satellites

Satellite Brightness Start Highest point End
(mag) Time Altitude Azimuth Time Altitude Azimuth Time Altitude Azimuth
Cosmos 292 Rocket 4.3 20:57:52 10° N 21:02:26 45° ENE 21:06:59 10° SE
SL-16 R/B 4.1 20:58:52 10° N 21:02:46 18° NE 21:06:40 10° E
Cosmos 1707 Rocket 3.8 21:01:31 10° N 21:05:51 56° E 21:10:09 10° SSE
H-2A R/B 2.3 21:01:26 10° S 21:05:58 80° WSW 21:10:30 10° NNW
SPOT 5 3.0 21:02:01 10° SSE 21:06:38 65° ENE 21:11:33 10° N
Cosmos 2333 Rocket 3.0 21:02:30 10° NNW 21:07:58 42° ENE 21:13:24 10° SE
CZ-4B R/B 4.4 21:03:48 10° NNE 21:08:30 32° E 21:13:05 10° SSE
Cosmos 2298 Rocket 4.2 21:03:27 10° S 21:08:37 55° ESE 21:13:49 10° NNE
Cosmos 2315 Rocket 4.0 21:02:26 10° N 21:08:41 81° E 21:14:53 10° S
ARGOS 4.0 21:03:56 10° SE 21:08:48 36° ENE 21:13:39 10° N
Meteor 1-11 4.5 21:03:17 10° S 21:08:51 54° E 21:14:23 10° NNE
USA 186 4.5 21:09:12 10° W 21:09:30 10° W 21:09:50 10° W
Cosmos 1666 Rocket 3.9 21:07:28 10° SSE 21:11:41 46° E 21:15:57 10° NNE
Cosmos 2297 Rocket 3.6 21:11:11 10° SE 21:15:02 19° E 21:18:53 10° ENE
Cosmos 2219 Rocket 2.4 21:10:18 10° NNW 21:15:50 59° ENE 21:21:22 10° SE
Cosmos 1455 3.9 21:15:11 10° NNE 21:17:58 19° ENE 21:20:44 10° ESE
NOSS 0 Rocket 4.2 21:13:32 10° NNW 21:19:39 60° ENE 21:25:34 11° SE
COSMOS 2428 3.0 21:14:20 10° NNW 21:19:59 69° WSW 21:25:37 10° SSE
Cosmos 1726 2.2 21:16:44 10° N 21:20:30 64° E 21:24:15 10° SSE
OTV 4 2.3 21:20:07 10° SSW 21:21:58 15° SSE 21:23:13 12° SE
Lacrosse 4 Rocket 3.3 21:25:03 10° N 21:28:33 22° NE 21:32:05 10° E
Meteor 1-4 Rocket 2.7 21:25:32 10° N 21:29:15 60° ENE 21:32:34 12° SSE
SL-08 RB Rocket 4.3 21:26:53 12° SE 21:30:47 41° ENE 21:35:01 10° N
Cosmos 2058 3.1 21:27:49 10° SSW 21:31:54 72° W 21:36:01 10° N
Cosmos 2151 4.2 21:28:49 10° SSW 21:32:49 43° WNW 21:36:51 10° N
COSMOS 2455 3.8 21:27:40 10° NNW 21:33:13 37° NE 21:38:41 10° ESE
Cosmos 1745 Rocket 4.2 21:32:55 10° SSE 21:38:52 51° E 21:44:48 10° NNE
NOSS 3-1 (A) 3.4 21:33:05 10° SSW 21:39:01 85° SE 21:45:40 10° NE
Terra 3.1 21:35:28 12° ESE 21:39:03 27° ENE 21:43:03 10° N
H-2A R/B 3.1 21:34:47 12° SE 21:39:08 34° ENE 21:44:01 10° N
Cosmos 1898 Rocket 3.5 21:34:58 10° SSW 21:40:10 88° ESE 21:45:26 10° NNE
Cosmos 1980 3.8 21:34:34 10° NNW 21:40:13 66° ENE 21:44:58 15° SE
Cosmos 858 Rocket 4.5 21:37:13 10° SSW 21:42:26 84° ESE 21:47:39 10° NNE
MetOp-B 4.4 21:42:30 10° S 21:47:50 69° WSW 21:53:11 10° NNW
Cosmos 2219 4.4 21:45:15 10° SW 21:50:46 47° WNW 21:56:20 10° NNE
Tiangong 1 1.1 21:47:49 10° WSW 21:50:52 55° S 21:53:19 15° E
SPOT 1/Viking Rocket 3.6 21:46:52 12° SSE 21:51:41 87° WSW 21:56:53 10° NNW
Cosmos 2237 Rocket 2.3 21:46:14 10° NNW 21:51:58 75° ENE 21:56:27 17° SSE
OAO 2 Rocket 4.4 21:51:42 10° SW 21:56:13 28° S 21:59:04 18° SE
Cosmos 2150 Rocket 4.5 21:50:57 10° SSW 21:56:22 68° WNW 22:01:51 10° NNE
Cosmos 2082 3.8 21:54:31 10° S 22:00:08 60° ESE 22:05:47 10° NNE
Sich 1 3.6 21:56:24 10° SSW 22:00:45 60° W 22:05:06 10° N
Cosmos 1869 3.8 21:57:19 10° N 22:01:16 47° ENE 22:03:36 22° SE
ATLAS 2AS CENTAUR R/B 3.1 21:54:00 10° SSW 22:01:16 56° ESE 22:09:05 10° NE
Cosmos 1271 Rocket 3.2 21:58:29 10° NNW 22:02:16 57° W 22:05:31 14° S
Cosmos 1626 2.4 22:02:07 20° SSE 22:04:25 50° E 22:08:05 10° NNE
Cosmos 1862 Rocket 3.6 22:00:48 10° N 22:05:08 65° E 22:07:54 21° SSE
CARTOSAT-1 4.0 22:04:59 21° SE 22:07:36 49° ENE 22:11:46 10° N
NOAA 11 4.3 22:03:22 15° S 22:07:58 80° WSW 22:13:28 10° NNW
YAOGAN 6 3.8 22:04:58 11° SSW 22:08:11 38° W 22:11:34 10° NNW
ATLAS 3B R/B 2.9 22:01:18 10° NNW 22:08:22 65° NE 22:13:27 18° SE
Cosmos 1633 Rocket 3.8 22:04:19 10° SSW 22:08:35 52° WNW 22:12:52 10° N
Iridium 2 3.7 22:05:33 15° S 22:08:40 88° W 22:12:33 10° N
ERBS 2.4 22:07:14 10° SW 22:10:44 82° NW 22:14:14 10° NE
Cosmos 2242 Rocket 4.4 22:08:44 10° NNW 22:13:03 48° W 22:17:06 12° SSW
CZ-4 R/B 3.9 22:09:05 10° NNE 22:14:03 90° S 22:18:51 10° SSW
IGS 5A 3.8 22:14:27 24° SE 22:16:41 51° ENE 22:20:45 10° N
CZ-4C R/B 2.9 22:16:16 27° SSE 22:18:04 88° WSW 22:21:35 10° NNW
Cosmos 1703 4.0 22:15:02 10° SSW 22:18:51 53° WNW 22:22:42 10° N
USA 245 4.2 22:21:00 15° SW 22:22:07 20° W 22:23:53 10° NW
Cosmos 192 4.4 22:19:49 10° NNW 22:24:45 77° WSW 22:27:44 24° S
USA 238 DEB 4.5 22:18:35 10° NNW 22:25:22 47° NE 22:31:05 15° ESE
USA 238 4.5 22:18:42 10° NNW 22:25:28 46° NE 22:31:11 14° ESE
SAR-Lupe-2 3.8 22:24:12 31° SE 22:25:38 55° ENE 22:29:09 10° N
CZ-4C R/B 4.1 22:21:34 10° NNW 22:27:36 32° NE 22:34:12 10° E
Cosmos 2227 Rocket 2.4 22:26:21 10° SSW 22:32:00 76° WNW 22:37:42 10° NNE
Cosmos 1869 Rocket 4.3 22:33:44 28° SE 22:35:15 37° E 22:39:23 10° NNE
NOSS 2-3 (E) 4.4 22:33:45 26° SSE 22:35:49 39° ESE 22:40:58 10° NE
DMSP B5D2-2 4.0 22:31:00 10° NNE 22:36:13 68° ESE 22:39:27 23° S
COS B Rocket 4.3 22:34:31 10° NNE 22:38:12 34° E 22:39:22 29° ESE
Spot 2 4.5 22:34:27 10° NNE 22:39:29 60° E 22:41:58 28° S
Aureole 2 Rocket 3.9 22:37:53 10° N 22:40:36 24° ENE 22:41:30 22° E
Okean 1-7 3.5 22:43:17 10° N 22:47:24 44° ENE 22:48:46 33° ESE
SL-16 R/B 2.2 22:41:58 10° NNW 22:47:42 88° WSW 22:50:40 30° SSE
ARGOS 4.4 22:44:45 13° SSW 22:49:01 34° W 22:53:53 10° NNW
Cosmos 2333 Rocket 3.4 22:47:01 10° NW 22:52:06 33° WSW 22:55:43 17° SSW
Cosmos 1455 3.7 22:50:22 10° NNW 22:53:46 31° W 22:55:49 19° SW
Cosmos 2297 Rocket 2.5 22:52:51 10° SW 22:58:29 67° WNW 23:04:08 10° NNE
ALOS 2 4.5 22:57:06 16° E 22:58:53 20° ENE 23:02:04 10° NNE
Cosmos 2219 Rocket 4.0 22:55:10 10° NW 22:59:19 22° W 23:03:06 11° SSW
Cosmos 2084 Rocket 4.1 23:00:03 31° E 23:00:03 31° E 23:02:54 10° NE
NOSS 2-3 (C) 4.0 23:00:19 26° SSW 23:03:03 64° ESE 23:08:43 10° NE
SeaSat 1 3.5 23:00:35 20° ESE 23:03:19 36° NE 23:07:49 10° NNW
Cosmos 2251 Rocket 4.1 22:58:13 10° N 23:03:22 47° ENE 23:05:45 28° ESE
Cosmos 1703 Rocket 3.7 23:02:20 10° NNW 23:06:42 70° W 23:08:18 38° SSW
Cosmos 44 Rocket 3.4 23:04:46 28° SSW 23:07:28 67° ESE 23:12:41 10° NE
Lacrosse 4 Rocket 2.0 23:03:14 10° NW 23:07:33 50° WSW 23:08:55 36° SSW
Cosmos 1933 3.9 23:08:23 10° NNW 23:12:20 52° W 23:13:41 35° SSW
Cosmos 1607 4.3 23:09:16 10° NNW 23:15:21 56° NE 23:18:53 25° ESE
Terra 2.9 23:14:21 23° SSW 23:16:39 36° W 23:21:03 10° NNW
Cosmos 1782 4.4 23:14:35 10° NNE 23:17:45 22° ENE 23:18:30 21° E
H-2A R/B 3.3 23:15:25 20° SSW 23:18:29 36° W 23:23:29 10° NNW
COSMOS 2455 3.4 23:13:34 10° NW 23:19:17 45° WSW 23:21:50 29° SSW
Cosmos 1603 3.8 23:16:21 10° NNW 23:22:03 70° ENE 23:24:29 35° SE
Cosmos 1340 Rocket 3.6 23:23:54 34° E 23:23:57 34° E 23:27:33 10° NNE
NOSS 2-3 (D) 3.9 23:21:10 23° SW 23:24:18 88° ESE 23:30:06 10° NE
Tiangong 1 3.1 23:24:18 10° W 23:25:23 19° W 23:25:23 19° W
Cosmos 1125 Rocket 4.3 23:23:43 13° SW 23:28:13 49° WNW 23:33:24 10° NNE
Cosmos 2074 Rocket 4.0 23:25:48 35° S 23:28:36 72° E 23:34:53 10° NNE
Cosmos 158 Rocket 3.9 23:23:39 10° NNW 23:28:57 81° WSW 23:30:39 43° S
Cosmos 2221 Rocket 4.5 23:25:37 10° NNW 23:29:56 43° W 23:31:33 30° SW
CZ-4B R/B 3.0 23:29:56 25° ENE 23:30:10 25° ENE 23:32:59 10° NNE
Cosmos 2237 Rocket 4.2 23:31:48 10° WNW 23:35:20 17° W 23:38:17 12° SW
Cosmos 2327 Rocket 4.5 23:34:41 35° S 23:37:36 83° E 23:44:03 10° N
Cosmos 389 Rocket 3.2 23:34:31 10° NNW 23:37:55 43° W 23:38:11 42° WSW
Cosmos 372 Rocket 4.3 23:36:14 26° SW 23:39:10 65° WNW 23:44:23 10° NNE
Landsat 5 4.5 23:43:42 34° ESE 23:44:54 41° ENE 23:49:11 10° N
Cosmos 1892 2.6 23:49:55 71° ESE 23:49:59 72° E 23:53:47 10° NNE
H-2A R/B 2.9 23:47:16 10° NNE 23:51:27 49° E 23:51:48 48° ESE
GEOS 3 Rocket 4.0 23:49:14 28° ESE 23:51:53 59° NE 23:56:59 10° NNW
Helios 1A Rocket 4.2 23:51:47 10° NE 23:55:24 28° E 23:55:24 28° E
